Year,Month,Day,Hour,Minute,Value (Times are PST for temperature in C)
2014,07,26,00,00,14.70
2014,07,26,00,01,14.70
2014,07,26,00,02,14.70
2014,07,26,00,03,14.70
2014,07,26,00,05,14.60
2014,07,26,00,06,14.60
2014,07,26,00,07,14.60
2014,07,26,00,08,14.60
2014,07,26,00,10,14.60
2014,07,26,00,11,14.60
2014,07,26,00,12,14.60
2014,07,26,00,13,14.60
2014,07,26,00,14,14.60
2014,07,26,00,15,14.60
2014,07,26,00,17,14.50
2014,07,26,00,18,14.50
2014,07,26,00,19,14.50
2014,07,26,00,21,14.50
2014,07,26,00,23,14.40
2014,07,26,00,25,14.40
2014,07,26,00,27,14.40
2014,07,26,00,29,14.40
2014,07,26,00,31,14.30
2014,07,26,00,32,14.30
2014,07,26,00,34,14.30
2014,07,26,00,35,14.30
2014,07,26,00,37,14.30
2014,07,26,00,38,14.30
2014,07,26,00,39,14.30
2014,07,26,00,40,14.30
2014,07,26,00,41,14.30
2014,07,26,00,43,14.20
2014,07,26,00,45,14.20
2014,07,26,00,46,14.20
2014,07,26,00,48,14.20
2014,07,26,00,49,14.20
2014,07,26,00,51,14.20
2014,07,26,00,52,14.10
2014,07,26,00,53,14.10
2014,07,26,00,54,14.10
2014,07,26,00,56,14.10
2014,07,26,00,57,14.10
2014,07,26,00,58,14.10
2014,07,26,01,00,14.10
2014,07,26,01,01,14.10
2014,07,26,01,02,14.10
2014,07,26,01,04,14.10
2014,07,26,01,05,14.00
2014,07,26,01,06,14.00
2014,07,26,01,07,14.00
2014,07,26,01,08,14.00
2014,07,26,01,10,14.00
2014,07,26,01,11,13.90
2014,07,26,01,13,13.90
2014,07,26,01,15,13.90
2014,07,26,01,16,13.90
2014,07,26,01,17,13.90
2014,07,26,01,18,13.90
2014,07,26,01,19,13.90
2014,07,26,01,20,13.90
2014,07,26,01,21,13.80
2014,07,26,01,22,13.80
2014,07,26,01,24,13.80
2014,07,26,01,25,13.80
2014,07,26,01,26,13.80
2014,07,26,01,27,13.80
2014,07,26,01,28,13.80
2014,07,26,01,29,13.80
2014,07,26,01,31,13.80
2014,07,26,01,32,13.70
2014,07,26,01,34,13.70
2014,07,26,01,35,13.70
2014,07,26,01,37,13.70
2014,07,26,01,38,13.70
2014,07,26,01,39,13.70
2014,07,26,01,40,13.70
2014,07,26,01,42,13.70
2014,07,26,01,43,13.70
2014,07,26,01,45,13.70
2014,07,26,01,47,13.60
2014,07,26,01,48,13.60
2014,07,26,01,49,13.60
2014,07,26,01,51,13.60
2014,07,26,01,52,13.60
2014,07,26,01,54,13.60
2014,07,26,01,55,13.60
2014,07,26,01,57,13.60
2014,07,26,01,58,13.60
2014,07,26,01,59,13.60
2014,07,26,02,00,13.60
2014,07,26,02,01,13.60
2014,07,26,02,02,13.60
2014,07,26,02,03,13.60
2014,07,26,02,05,13.60
2014,07,26,02,06,13.60
2014,07,26,02,08,13.60
2014,07,26,02,10,13.60
2014,07,26,02,12,13.70
2014,07,26,02,13,13.70
2014,07,26,02,14,13.70
2014,07,26,02,16,13.70
2014,07,26,02,17,13.70
2014,07,26,02,18,13.70
2014,07,26,02,19,13.70
2014,07,26,02,20,13.70
2014,07,26,02,21,13.70
2014,07,26,02,23,13.80
2014,07,26,02,25,13.80
2014,07,26,02,27,13.80
2014,07,26,02,28,13.80
2014,07,26,02,29,13.80
2014,07,26,02,30,13.80
2014,07,26,02,31,13.80
2014,07,26,02,32,13.80
2014,07,26,02,33,13.80
2014,07,26,02,34,13.80
2014,07,26,02,35,13.80
2014,07,26,02,37,13.80
2014,07,26,02,38,13.80
2014,07,26,02,39,13.80
2014,07,26,02,40,13.80
2014,07,26,02,41,13.80
2014,07,26,02,42,13.80
2014,07,26,02,44,13.80
2014,07,26,02,45,13.80
2014,07,26,02,46,13.80
2014,07,26,02,47,13.80
2014,07,26,02,49,13.80
2014,07,26,02,50,13.80
2014,07,26,02,52,13.80
2014,07,26,02,54,13.80
2014,07,26,02,56,13.80
2014,07,26,02,57,13.80
2014,07,26,02,58,13.80
2014,07,26,03,00,13.80
2014,07,26,03,01,13.80
2014,07,26,03,02,13.80
2014,07,26,03,03,13.80
2014,07,26,03,04,13.80
2014,07,26,03,06,13.80
2014,07,26,03,07,13.80
2014,07,26,03,09,13.80
2014,07,26,03,10,13.80
2014,07,26,03,12,13.80
2014,07,26,03,13,13.80
2014,07,26,03,15,13.80
2014,07,26,03,17,13.80
2014,07,26,03,18,13.80
2014,07,26,03,19,13.80
2014,07,26,03,20,13.80
2014,07,26,03,21,13.80
2014,07,26,03,23,13.90
2014,07,26,03,25,13.90
2014,07,26,03,26,13.90
2014,07,26,03,27,13.90
2014,07,26,03,29,13.90
2014,07,26,03,30,13.90
2014,07,26,03,31,13.90
2014,07,26,03,32,13.90
2014,07,26,03,34,13.90
2014,07,26,03,35,13.90
2014,07,26,03,36,13.90
2014,07,26,03,37,13.90
2014,07,26,03,38,13.90
2014,07,26,03,39,13.90
2014,07,26,03,40,13.90
2014,07,26,03,41,13.90
2014,07,26,03,42,13.90
2014,07,26,03,43,13.90
2014,07,26,03,44,13.90
2014,07,26,03,45,13.90
2014,07,26,03,46,13.90
2014,07,26,03,47,13.90
2014,07,26,03,48,13.90
2014,07,26,03,49,13.90
2014,07,26,03,50,13.90
2014,07,26,03,51,13.90
2014,07,26,03,53,13.90
2014,07,26,03,54,13.90
2014,07,26,03,55,13.90
2014,07,26,03,56,13.90
2014,07,26,03,57,13.90
2014,07,26,03,58,13.90
2014,07,26,03,59,13.90
2014,07,26,04,00,13.90
2014,07,26,04,01,13.90
2014,07,26,04,02,13.90
2014,07,26,04,04,13.90
2014,07,26,04,05,13.90
2014,07,26,04,06,13.90
2014,07,26,04,07,13.90
2014,07,26,04,08,13.90
2014,07,26,04,09,13.90
2014,07,26,04,10,13.90
2014,07,26,04,11,13.90
2014,07,26,04,12,13.90
2014,07,26,04,13,13.90
2014,07,26,04,14,13.90
2014,07,26,04,15,13.90
2014,07,26,04,16,13.90
2014,07,26,04,17,13.90
2014,07,26,04,18,13.90
2014,07,26,04,20,13.90
2014,07,26,04,21,13.90
2014,07,26,04,22,13.90
2014,07,26,04,23,13.90
2014,07,26,04,24,13.90
2014,07,26,04,25,13.90
2014,07,26,04,26,13.90
2014,07,26,04,27,13.90
2014,07,26,04,28,13.90
2014,07,26,04,29,13.90
2014,07,26,04,31,13.90
2014,07,26,04,32,13.90
2014,07,26,04,33,13.90
2014,07,26,04,35,13.90
2014,07,26,04,36,13.90
2014,07,26,04,38,13.90
2014,07,26,04,40,13.90
2014,07,26,04,41,13.90
2014,07,26,04,42,13.80
2014,07,26,04,44,13.80
2014,07,26,04,45,13.80
2014,07,26,04,46,13.80
2014,07,26,04,47,13.80
2014,07,26,04,48,13.80
2014,07,26,04,49,13.80
2014,07,26,04,50,13.80
2014,07,26,04,51,13.80
2014,07,26,04,52,13.80
2014,07,26,04,54,13.80
2014,07,26,04,56,13.80
2014,07,26,04,57,13.80
2014,07,26,04,58,13.80
2014,07,26,04,59,13.80
2014,07,26,05,01,13.70
2014,07,26,05,03,13.70
2014,07,26,05,04,13.70
2014,07,26,05,06,13.70
2014,07,26,05,08,13.70
2014,07,26,05,10,13.70
2014,07,26,05,12,13.70
2014,07,26,05,13,13.70
2014,07,26,05,15,13.70
2014,07,26,05,16,13.70
2014,07,26,05,17,13.70
2014,07,26,05,18,13.70
2014,07,26,05,20,13.70
2014,07,26,05,21,13.70
2014,07,26,05,23,13.70
2014,07,26,05,24,13.60
2014,07,26,05,26,13.60
2014,07,26,05,27,13.60
2014,07,26,05,28,13.60
2014,07,26,05,29,13.60
2014,07,26,05,30,13.60
2014,07,26,05,31,13.60
2014,07,26,05,32,13.60
2014,07,26,05,33,13.60
2014,07,26,05,35,13.60
2014,07,26,05,36,13.60
2014,07,26,05,38,13.60
2014,07,26,05,39,13.60
2014,07,26,05,40,13.60
2014,07,26,05,42,13.60
2014,07,26,05,44,13.50
2014,07,26,05,46,13.50
2014,07,26,05,47,13.50
2014,07,26,05,48,13.50
2014,07,26,05,50,13.50
2014,07,26,05,51,13.50
2014,07,26,05,52,13.50
2014,07,26,05,53,13.50
2014,07,26,05,54,13.50
2014,07,26,05,55,13.40
2014,07,26,05,56,13.40
2014,07,26,05,57,13.40
2014,07,26,05,58,13.40
2014,07,26,05,59,13.40
2014,07,26,06,00,13.40
2014,07,26,06,01,13.40
2014,07,26,06,02,13.40
2014,07,26,06,04,13.40
2014,07,26,06,05,13.40
2014,07,26,06,06,13.40
2014,07,26,06,08,13.40
2014,07,26,06,09,13.40
2014,07,26,06,10,13.40
2014,07,26,06,11,13.30
2014,07,26,06,12,13.40
2014,07,26,06,13,13.30
2014,07,26,06,15,13.30
2014,07,26,06,16,13.40
2014,07,26,06,17,13.30
2014,07,26,06,18,13.30
2014,07,26,06,20,13.30
2014,07,26,06,21,13.30
2014,07,26,06,22,13.30
2014,07,26,06,23,13.30
2014,07,26,06,24,13.30
2014,07,26,06,26,13.30
2014,07,26,06,28,13.30
2014,07,26,06,29,13.40
2014,07,26,06,30,13.40
2014,07,26,06,31,13.40
2014,07,26,06,32,13.40
2014,07,26,06,33,13.40
2014,07,26,06,34,13.40
2014,07,26,06,35,13.40
2014,07,26,06,37,13.40
2014,07,26,06,38,13.40
2014,07,26,06,39,13.50
2014,07,26,06,40,13.50
2014,07,26,06,41,13.50
2014,07,26,06,42,13.50
2014,07,26,06,43,13.50
2014,07,26,06,44,13.60
2014,07,26,06,45,13.60
2014,07,26,06,46,13.60
2014,07,26,06,47,13.60
2014,07,26,06,48,13.60
2014,07,26,06,49,13.60
2014,07,26,06,50,13.60
2014,07,26,06,51,13.60
2014,07,26,06,52,13.60
2014,07,26,06,53,13.60
2014,07,26,06,54,13.70
2014,07,26,06,55,13.70
2014,07,26,06,56,13.70
2014,07,26,06,57,13.70
2014,07,26,06,58,13.70
2014,07,26,06,59,13.70
2014,07,26,07,00,13.70
2014,07,26,07,01,13.80
2014,07,26,07,02,13.80
2014,07,26,07,04,13.80
2014,07,26,07,05,13.90
2014,07,26,07,06,13.90
2014,07,26,07,08,13.90
2014,07,26,07,09,14.00
2014,07,26,07,10,14.00
2014,07,26,07,11,14.10
2014,07,26,07,12,14.10
2014,07,26,07,13,14.10
2014,07,26,07,14,14.10
2014,07,26,07,15,14.20
2014,07,26,07,16,14.20
2014,07,26,07,17,14.20
2014,07,26,07,18,14.20
2014,07,26,07,19,14.20
2014,07,26,07,21,14.20
2014,07,26,07,22,14.30
2014,07,26,07,23,14.30
2014,07,26,07,24,14.30
2014,07,26,07,25,14.30
2014,07,26,07,26,14.30
2014,07,26,07,27,14.30
2014,07,26,07,28,14.30
2014,07,26,07,30,14.40
2014,07,26,07,31,14.40
2014,07,26,07,32,14.40
2014,07,26,07,34,14.40
2014,07,26,07,35,14.40
2014,07,26,07,36,14.50
2014,07,26,07,37,14.50
2014,07,26,07,38,14.50
2014,07,26,07,40,14.50
2014,07,26,07,41,14.60
2014,07,26,07,43,14.60
2014,07,26,07,44,14.60
2014,07,26,07,45,14.70
2014,07,26,07,46,14.70
2014,07,26,07,47,14.70
2014,07,26,07,48,14.80
2014,07,26,07,49,14.80
2014,07,26,07,50,14.80
2014,07,26,07,51,14.80
2014,07,26,07,52,14.90
2014,07,26,07,53,14.90
2014,07,26,07,55,14.90
2014,07,26,07,57,15.00
2014,07,26,07,58,15.10
2014,07,26,07,59,15.10
2014,07,26,08,01,15.10
2014,07,26,08,02,15.10
2014,07,26,08,03,15.20
2014,07,26,08,04,15.20
2014,07,26,08,05,15.20
2014,07,26,08,06,15.20
2014,07,26,08,07,15.20
2014,07,26,08,08,15.20
2014,07,26,08,09,15.30
2014,07,26,08,10,15.30
2014,07,26,08,11,15.30
2014,07,26,08,12,15.30
2014,07,26,08,13,15.30
2014,07,26,08,14,15.30
2014,07,26,08,15,15.30
2014,07,26,08,16,15.40
2014,07,26,08,17,15.40
2014,07,26,08,18,15.40
2014,07,26,08,19,15.40
2014,07,26,08,21,15.50
2014,07,26,08,22,15.60
2014,07,26,08,23,15.60
2014,07,26,08,24,15.60
2014,07,26,08,25,15.60
2014,07,26,08,26,15.70
2014,07,26,08,27,15.70
2014,07,26,08,28,15.70
2014,07,26,08,29,15.70
2014,07,26,08,30,15.70
2014,07,26,08,31,15.70
2014,07,26,08,32,15.70
2014,07,26,08,33,15.70
2014,07,26,08,35,15.70
2014,07,26,08,36,15.70
2014,07,26,08,37,15.80
2014,07,26,08,38,15.80
2014,07,26,08,39,15.80
2014,07,26,08,40,15.80
2014,07,26,08,41,15.80
2014,07,26,08,43,15.90
2014,07,26,08,44,15.90
2014,07,26,08,45,15.90
2014,07,26,08,46,15.90
2014,07,26,08,47,15.90
2014,07,26,08,48,15.90
2014,07,26,08,50,15.90
2014,07,26,08,51,15.90
2014,07,26,08,52,16.00
2014,07,26,08,53,16.00
2014,07,26,08,54,16.00
2014,07,26,08,55,16.00
2014,07,26,08,56,16.00
2014,07,26,08,57,16.00
2014,07,26,08,58,16.00
2014,07,26,08,59,16.00
2014,07,26,09,00,16.00
2014,07,26,09,01,16.10
2014,07,26,09,03,16.10
2014,07,26,09,04,16.10
2014,07,26,09,06,16.20
2014,07,26,09,08,16.20
2014,07,26,09,09,16.20
2014,07,26,09,10,16.20
2014,07,26,09,11,16.20
2014,07,26,09,12,16.20
2014,07,26,09,13,16.20
2014,07,26,09,15,16.20
2014,07,26,09,16,16.30
2014,07,26,09,18,16.30
2014,07,26,09,19,16.30
2014,07,26,09,20,16.30
2014,07,26,09,22,16.30
2014,07,26,09,23,16.30
2014,07,26,09,24,16.40
2014,07,26,09,25,16.40
2014,07,26,09,26,16.40
2014,07,26,09,27,16.40
2014,07,26,09,28,16.50
2014,07,26,09,29,16.60
2014,07,26,09,31,16.70
2014,07,26,09,32,16.70
2014,07,26,09,33,16.80
2014,07,26,09,35,16.80
2014,07,26,09,36,16.80
2014,07,26,09,37,16.80
2014,07,26,09,39,16.80
2014,07,26,09,40,16.80
2014,07,26,09,41,16.80
2014,07,26,09,42,16.80
2014,07,26,09,43,16.80
2014,07,26,09,45,16.80
2014,07,26,09,46,16.90
2014,07,26,09,47,16.90
2014,07,26,09,48,17.00
2014,07,26,09,49,17.10
2014,07,26,09,50,17.20
2014,07,26,09,51,17.30
2014,07,26,09,52,17.30
2014,07,26,09,53,17.40
2014,07,26,09,54,17.40
2014,07,26,09,55,17.50
2014,07,26,09,56,17.60
2014,07,26,09,57,17.60
2014,07,26,09,58,17.70
2014,07,26,09,59,17.70
2014,07,26,10,00,17.70
2014,07,26,10,01,17.80
2014,07,26,10,02,17.80
2014,07,26,10,04,18.00
2014,07,26,10,05,18.10
2014,07,26,10,06,18.20
2014,07,26,10,07,18.20
2014,07,26,10,08,18.30
2014,07,26,10,10,18.30
2014,07,26,10,11,18.40
2014,07,26,10,12,18.40
2014,07,26,10,13,18.50
2014,07,26,10,14,18.50
2014,07,26,10,15,18.60
2014,07,26,10,16,18.60
2014,07,26,10,17,18.60
2014,07,26,10,18,18.70
2014,07,26,10,19,18.70
2014,07,26,10,20,18.70
2014,07,26,10,21,18.70
2014,07,26,10,22,18.80
2014,07,26,10,23,18.90
2014,07,26,10,24,19.00
2014,07,26,10,25,19.10
2014,07,26,10,26,19.20
2014,07,26,10,27,19.30
2014,07,26,10,28,19.40
2014,07,26,10,29,19.40
2014,07,26,10,30,19.40
2014,07,26,10,31,19.40
2014,07,26,10,32,19.40
2014,07,26,10,33,19.60
2014,07,26,10,34,19.60
2014,07,26,10,35,19.70
2014,07,26,10,36,19.70
2014,07,26,10,38,19.60
2014,07,26,10,40,19.50
2014,07,26,10,41,19.40
2014,07,26,10,42,19.40
2014,07,26,10,43,19.40
2014,07,26,10,44,19.50
2014,07,26,10,45,19.60
2014,07,26,10,46,19.60
2014,07,26,10,48,19.70
2014,07,26,10,50,19.70
2014,07,26,10,51,19.70
2014,07,26,10,52,19.70
2014,07,26,10,53,19.80
2014,07,26,10,54,19.80
2014,07,26,10,55,19.80
2014,07,26,10,56,19.80
2014,07,26,10,57,19.80
2014,07,26,10,59,19.90
2014,07,26,11,00,19.90
2014,07,26,11,01,19.90
2014,07,26,11,02,19.90
2014,07,26,11,04,19.80
2014,07,26,11,05,19.90
2014,07,26,11,06,19.90
2014,07,26,11,07,20.00
2014,07,26,11,08,20.10
2014,07,26,11,09,20.20
2014,07,26,11,10,20.30
2014,07,26,11,11,20.40
2014,07,26,11,12,20.50
2014,07,26,11,13,20.60
2014,07,26,11,14,20.70
2014,07,26,11,15,20.80
2014,07,26,11,16,20.80
2014,07,26,11,18,20.90
2014,07,26,11,19,21.00
2014,07,26,11,20,20.90
2014,07,26,11,21,20.90
2014,07,26,11,22,20.90
2014,07,26,11,23,21.00
2014,07,26,11,24,21.00
2014,07,26,11,26,20.90
2014,07,26,11,27,20.90
2014,07,26,11,28,20.90
2014,07,26,11,30,20.80
2014,07,26,11,31,20.90
2014,07,26,11,32,20.90
2014,07,26,11,33,21.00
2014,07,26,11,34,21.10
2014,07,26,11,36,21.20
2014,07,26,11,37,21.30
2014,07,26,11,38,21.40
2014,07,26,11,39,21.40
2014,07,26,11,40,21.50
2014,07,26,11,41,21.60
2014,07,26,11,42,21.70
2014,07,26,11,43,21.60
2014,07,26,11,44,21.60
2014,07,26,11,45,21.70
2014,07,26,11,46,21.70
2014,07,26,11,47,21.70
2014,07,26,11,48,21.70
2014,07,26,11,49,21.70
2014,07,26,11,50,21.80
2014,07,26,11,51,21.80
2014,07,26,11,52,21.80
2014,07,26,11,53,21.80
2014,07,26,11,54,21.80
2014,07,26,11,55,21.80
2014,07,26,11,57,21.70
2014,07,26,11,58,21.70
2014,07,26,11,59,21.70
2014,07,26,12,00,21.80
2014,07,26,12,01,21.90
2014,07,26,12,02,22.00
2014,07,26,12,04,21.90
2014,07,26,12,05,21.90
2014,07,26,12,06,21.80
2014,07,26,12,07,21.80
2014,07,26,12,08,21.70
2014,07,26,12,09,21.70
2014,07,26,12,10,21.70
2014,07,26,12,11,21.70
2014,07,26,12,12,21.70
2014,07,26,12,13,21.80
2014,07,26,12,15,21.90
2014,07,26,12,16,21.90
2014,07,26,12,18,21.90
2014,07,26,12,19,21.90
2014,07,26,12,20,21.80
2014,07,26,12,21,21.80
2014,07,26,12,23,21.80
2014,07,26,12,24,21.80
2014,07,26,12,25,21.80
2014,07,26,12,26,21.90
2014,07,26,12,27,22.00
2014,07,26,12,28,22.10
2014,07,26,12,29,22.10
2014,07,26,12,30,22.10
2014,07,26,12,31,22.20
2014,07,26,12,32,22.20
2014,07,26,12,33,22.20
2014,07,26,12,34,22.20
2014,07,26,12,35,22.20
2014,07,26,12,36,22.20
2014,07,26,12,37,22.20
2014,07,26,12,38,22.30
2014,07,26,12,39,22.30
2014,07,26,12,40,22.40
2014,07,26,12,41,22.40
2014,07,26,12,42,22.60
2014,07,26,12,43,22.70
2014,07,26,12,44,22.80
2014,07,26,12,45,22.80
2014,07,26,12,47,23.10
2014,07,26,12,48,23.10
2014,07,26,12,49,23.20
2014,07,26,12,50,23.20
2014,07,26,12,51,23.30
2014,07,26,12,52,23.40
2014,07,26,12,53,23.40
2014,07,26,12,54,23.50
2014,07,26,12,55,23.50
2014,07,26,12,56,23.50
2014,07,26,12,57,23.50
2014,07,26,12,58,23.50
2014,07,26,12,59,23.50
2014,07,26,13,00,23.50
2014,07,26,13,01,23.50
2014,07,26,13,02,23.50
2014,07,26,13,03,23.60
2014,07,26,13,04,23.60
2014,07,26,13,05,23.70
2014,07,26,13,06,23.70
2014,07,26,13,07,23.80
2014,07,26,13,08,23.80
2014,07,26,13,09,23.70
2014,07,26,13,10,23.70
2014,07,26,13,11,23.80
2014,07,26,13,12,23.80
2014,07,26,13,13,23.90
2014,07,26,13,14,23.90
2014,07,26,13,15,23.90
2014,07,26,13,16,24.00
2014,07,26,13,17,24.00
2014,07,26,13,18,24.00
2014,07,26,13,19,24.20
2014,07,26,13,20,24.30
2014,07,26,13,21,24.30
2014,07,26,13,22,24.40
2014,07,26,13,23,24.40
2014,07,26,13,24,24.40
2014,07,26,13,25,24.40
2014,07,26,13,26,24.30
2014,07,26,13,28,24.20
2014,07,26,13,29,24.30
2014,07,26,13,30,24.30
2014,07,26,13,31,24.30
2014,07,26,13,32,24.30
2014,07,26,13,34,24.30
2014,07,26,13,35,24.30
2014,07,26,13,36,24.40
2014,07,26,13,37,24.60
2014,07,26,13,38,24.60
2014,07,26,13,39,24.70
2014,07,26,13,40,24.80
2014,07,26,13,41,24.80
2014,07,26,13,42,24.80
2014,07,26,13,43,24.90
2014,07,26,13,44,24.90
2014,07,26,13,45,24.90
2014,07,26,13,46,24.80
2014,07,26,13,47,24.80
2014,07,26,13,48,24.80
2014,07,26,13,49,24.80
2014,07,26,13,50,24.80
2014,07,26,13,51,24.80
2014,07,26,13,52,24.80
2014,07,26,13,53,24.70
2014,07,26,13,54,24.70
2014,07,26,13,55,24.70
2014,07,26,13,56,24.70
2014,07,26,13,57,24.80
2014,07,26,13,58,24.90
2014,07,26,13,59,24.90
2014,07,26,14,00,25.00
2014,07,26,14,01,25.10
2014,07,26,14,02,25.20
2014,07,26,14,04,25.30
2014,07,26,14,05,25.40
2014,07,26,14,06,25.40
2014,07,26,14,07,25.40
2014,07,26,14,08,25.40
2014,07,26,14,09,25.40
2014,07,26,14,10,25.50
2014,07,26,14,12,25.40
2014,07,26,14,13,25.40
2014,07,26,14,14,25.30
2014,07,26,14,15,25.20
2014,07,26,14,16,25.20
2014,07,26,14,18,25.30
2014,07,26,14,20,25.50
2014,07,26,14,21,25.60
2014,07,26,14,23,25.70
2014,07,26,14,24,25.80
2014,07,26,14,25,25.80
2014,07,26,14,26,25.90
2014,07,26,14,27,25.90
2014,07,26,14,28,25.90
2014,07,26,14,29,26.00
2014,07,26,14,30,26.00
2014,07,26,14,32,26.10
2014,07,26,14,33,26.10
2014,07,26,14,34,26.00
2014,07,26,14,35,26.00
2014,07,26,14,36,25.90
2014,07,26,14,38,25.90
2014,07,26,14,39,25.80
2014,07,26,14,40,25.80
2014,07,26,14,41,25.80
2014,07,26,14,42,25.90
2014,07,26,14,43,25.90
2014,07,26,14,44,25.80
2014,07,26,14,46,25.70
2014,07,26,14,48,25.60
2014,07,26,14,50,25.70
2014,07,26,14,51,25.80
2014,07,26,14,53,25.80
2014,07,26,14,54,25.80
2014,07,26,14,56,25.70
2014,07,26,14,57,25.70
2014,07,26,14,58,25.50
2014,07,26,14,59,25.40
2014,07,26,15,01,25.40
2014,07,26,15,03,25.50
2014,07,26,15,05,25.60
2014,07,26,15,06,25.60
2014,07,26,15,07,25.50
2014,07,26,15,08,25.60
2014,07,26,15,10,25.70
2014,07,26,15,11,25.80
2014,07,26,15,12,25.80
2014,07,26,15,13,25.80
2014,07,26,15,14,25.80
2014,07,26,15,16,25.80
2014,07,26,15,17,25.80
2014,07,26,15,18,25.80
2014,07,26,15,19,25.80
2014,07,26,15,20,25.80
2014,07,26,15,21,25.80
2014,07,26,15,22,25.70
2014,07,26,15,23,25.70
2014,07,26,15,24,25.60
2014,07,26,15,25,25.60
2014,07,26,15,26,25.60
2014,07,26,15,27,25.60
2014,07,26,15,28,25.60
2014,07,26,15,29,25.60
2014,07,26,15,30,25.60
2014,07,26,15,31,25.60
2014,07,26,15,32,25.60
2014,07,26,15,33,25.60
2014,07,26,15,34,25.70
2014,07,26,15,35,25.70
2014,07,26,15,36,25.70
2014,07,26,15,37,25.70
2014,07,26,15,38,25.70
2014,07,26,15,40,25.70
2014,07,26,15,41,25.80
2014,07,26,15,42,25.90
2014,07,26,15,43,25.90
2014,07,26,15,45,25.90
2014,07,26,15,46,25.90
2014,07,26,15,47,25.90
2014,07,26,15,48,25.80
2014,07,26,15,49,25.80
2014,07,26,15,50,25.80
2014,07,26,15,52,25.70
2014,07,26,15,53,25.70
2014,07,26,15,55,25.70
2014,07,26,15,57,25.70
2014,07,26,15,58,25.70
2014,07,26,16,00,25.70
2014,07,26,16,01,25.70
2014,07,26,16,02,25.70
2014,07,26,16,03,25.70
2014,07,26,16,05,25.70
2014,07,26,16,07,25.60
2014,07,26,16,09,25.60
2014,07,26,16,10,25.70
2014,07,26,16,12,25.60
2014,07,26,16,13,25.60
2014,07,26,16,14,25.60
2014,07,26,16,16,25.60
2014,07,26,16,17,25.60
2014,07,26,16,18,25.60
2014,07,26,16,19,25.60
2014,07,26,16,20,25.60
2014,07,26,16,21,25.50
2014,07,26,16,23,25.50
2014,07,26,16,24,25.50
2014,07,26,16,26,25.60
2014,07,26,16,27,25.70
2014,07,26,16,29,25.70
2014,07,26,16,30,25.80
2014,07,26,16,32,25.90
2014,07,26,16,34,26.00
2014,07,26,16,35,26.00
2014,07,26,16,36,25.90
2014,07,26,16,38,25.70
2014,07,26,16,40,25.60
2014,07,26,16,41,25.60
2014,07,26,16,42,25.40
2014,07,26,16,43,25.30
2014,07,26,16,44,25.10
2014,07,26,16,45,24.90
2014,07,26,16,46,24.80
2014,07,26,16,47,24.70
2014,07,26,16,48,24.70
2014,07,26,16,49,24.70
2014,07,26,16,50,24.80
2014,07,26,16,52,24.80
2014,07,26,16,53,24.80
2014,07,26,16,54,24.80
2014,07,26,16,55,24.80
2014,07,26,16,56,24.80
2014,07,26,16,57,24.80
2014,07,26,16,58,24.80
2014,07,26,16,59,24.80
2014,07,26,17,01,24.70
2014,07,26,17,03,24.60
2014,07,26,17,05,24.60
2014,07,26,17,06,24.70
2014,07,26,17,07,24.70
2014,07,26,17,09,24.70
2014,07,26,17,10,24.70
2014,07,26,17,11,24.70
2014,07,26,17,12,24.70
2014,07,26,17,13,24.70
2014,07,26,17,14,24.70
2014,07,26,17,15,24.70
2014,07,26,17,16,24.70
2014,07,26,17,18,24.60
2014,07,26,17,19,24.60
2014,07,26,17,21,24.60
2014,07,26,17,22,24.50
2014,07,26,17,23,24.50
2014,07,26,17,24,24.40
2014,07,26,17,25,24.40
2014,07,26,17,26,24.30
2014,07,26,17,27,24.30
2014,07,26,17,29,24.20
2014,07,26,17,30,24.20
2014,07,26,17,31,24.20
2014,07,26,17,32,24.20
2014,07,26,17,33,24.20
2014,07,26,17,34,24.20
2014,07,26,17,35,24.20
2014,07,26,17,36,24.20
2014,07,26,17,37,24.30
2014,07,26,17,39,24.20
2014,07,26,17,41,24.20
2014,07,26,17,43,24.20
2014,07,26,17,44,24.20
2014,07,26,17,45,24.20
2014,07,26,17,47,24.20
2014,07,26,17,48,24.20
2014,07,26,17,49,24.10
2014,07,26,17,52,23.90
2014,07,26,17,53,23.80
2014,07,26,17,54,23.80
2014,07,26,17,55,23.90
2014,07,26,17,56,23.90
2014,07,26,17,57,23.90
2014,07,26,17,58,23.90
2014,07,26,17,59,23.90
2014,07,26,18,00,23.90
2014,07,26,18,01,24.00
2014,07,26,18,02,23.90
2014,07,26,18,04,23.90
2014,07,26,18,05,23.80
2014,07,26,18,06,23.80
2014,07,26,18,07,23.80
2014,07,26,18,09,23.70
2014,07,26,18,10,23.70
2014,07,26,18,11,23.70
2014,07,26,18,12,23.70
2014,07,26,18,13,23.70
2014,07,26,18,14,23.70
2014,07,26,18,15,23.60
2014,07,26,18,16,23.60
2014,07,26,18,17,23.60
2014,07,26,18,18,23.50
2014,07,26,18,19,23.50
2014,07,26,18,20,23.40
2014,07,26,18,21,23.40
2014,07,26,18,22,23.30
2014,07,26,18,23,23.30
2014,07,26,18,25,23.30
2014,07,26,18,26,23.30
2014,07,26,18,27,23.20
2014,07,26,18,28,23.20
2014,07,26,18,30,23.10
2014,07,26,18,31,23.10
2014,07,26,18,32,23.00
2014,07,26,18,33,23.00
2014,07,26,18,34,22.90
2014,07,26,18,35,22.90
2014,07,26,18,37,22.90
2014,07,26,18,38,22.90
2014,07,26,18,39,22.90
2014,07,26,18,40,22.80
2014,07,26,18,41,22.80
2014,07,26,18,42,22.80
2014,07,26,18,43,22.80
2014,07,26,18,44,22.70
2014,07,26,18,45,22.70
2014,07,26,18,46,22.70
2014,07,26,18,47,22.60
2014,07,26,18,48,22.60
2014,07,26,18,49,22.50
2014,07,26,18,51,22.40
2014,07,26,18,52,22.40
2014,07,26,18,53,22.40
2014,07,26,18,55,22.30
2014,07,26,18,56,22.30
2014,07,26,18,57,22.30
2014,07,26,18,58,22.30
2014,07,26,18,59,22.30
2014,07,26,19,00,22.20
2014,07,26,19,01,22.20
2014,07,26,19,02,22.20
2014,07,26,19,04,22.20
2014,07,26,19,05,22.20
2014,07,26,19,06,22.20
2014,07,26,19,07,22.20
2014,07,26,19,08,22.20
2014,07,26,19,09,22.20
2014,07,26,19,10,22.20
2014,07,26,19,11,22.10
2014,07,26,19,12,22.10
2014,07,26,19,13,22.10
2014,07,26,19,14,22.10
2014,07,26,19,15,22.20
2014,07,26,19,16,22.20
2014,07,26,19,17,22.20
2014,07,26,19,18,22.10
2014,07,26,19,19,22.10
2014,07,26,19,20,22.10
2014,07,26,19,21,22.00
2014,07,26,19,22,21.90
2014,07,26,19,24,21.80
2014,07,26,19,25,21.70
2014,07,26,19,27,21.60
2014,07,26,19,28,21.60
2014,07,26,19,29,21.60
2014,07,26,19,30,21.60
2014,07,26,19,31,21.60
2014,07,26,19,32,21.60
2014,07,26,19,33,21.50
2014,07,26,19,35,21.50
2014,07,26,19,36,21.40
2014,07,26,19,38,21.40
2014,07,26,19,39,21.40
2014,07,26,19,40,21.40
2014,07,26,19,41,21.40
2014,07,26,19,42,21.40
2014,07,26,19,43,21.40
2014,07,26,19,44,21.40
2014,07,26,19,45,21.40
2014,07,26,19,46,21.40
2014,07,26,19,48,21.40
2014,07,26,19,49,21.40
2014,07,26,19,50,21.50
2014,07,26,19,51,21.50
2014,07,26,19,52,21.50
2014,07,26,19,53,21.50
2014,07,26,19,54,21.50
2014,07,26,19,55,21.50
2014,07,26,19,57,21.50
2014,07,26,19,58,21.40
2014,07,26,19,59,21.40
2014,07,26,20,00,21.40
2014,07,26,20,01,21.40
2014,07,26,20,02,21.40
2014,07,26,20,04,21.40
2014,07,26,20,05,21.40
2014,07,26,20,06,21.40
2014,07,26,20,07,21.40
2014,07,26,20,08,21.40
2014,07,26,20,09,21.40
2014,07,26,20,10,21.40
2014,07,26,20,11,21.40
2014,07,26,20,12,21.40
2014,07,26,20,13,21.30
2014,07,26,20,14,21.30
2014,07,26,20,16,21.30
2014,07,26,20,17,21.30
2014,07,26,20,18,21.20
2014,07,26,20,19,21.20
2014,07,26,20,20,21.20
2014,07,26,20,21,21.20
2014,07,26,20,22,21.20
2014,07,26,20,23,21.20
2014,07,26,20,25,21.10
2014,07,26,20,26,21.10
2014,07,26,20,27,21.10
2014,07,26,20,28,21.10
2014,07,26,20,29,21.00
2014,07,26,20,30,21.00
2014,07,26,20,31,21.00
2014,07,26,20,32,21.00
2014,07,26,20,33,20.90
2014,07,26,20,34,20.90
2014,07,26,20,35,20.90
2014,07,26,20,36,20.80
2014,07,26,20,37,20.80